Location: Casilda
(33.0440°S, 61.1680°W)
Time: 00:48:25
(UTC-03:00)

ISS - Visible Passes

Search period start: 29 May 2017 00:00
Search period end: 08 June 2017 00:00
Orbit: 402 x 408 km, 51.6° (Epoch: 29 May)

Date Brightness Start Highest point End Pass type
(mag) Time Alt. Az. Time Alt. Az. Time Alt. Az.
29 May -3.2 07:10:30 10° NW 07:13:45 62° NE 07:17:02 10° SE visible
30 May -1.6 06:19:00 10° N 06:21:49 27° NE 06:24:40 10° ESE visible
31 May -0.5 05:30:30 12° ENE 05:30:30 12° ENE 05:31:31 10° E visible
31 May -3.4 07:03:17 12° WNW 07:06:08 42° SW 07:09:19 10° SSE visible
01 Jun -3.3 06:14:42 55° SE 06:14:42 55° SE 06:17:23 10° SE visible
02 Jun -2.2 06:58:25 18° SW 06:58:38 19° SW 07:01:05 10° SSE visible
03 Jun -1.1 06:09:07 12° SSE 06:09:07 12° SSE 06:09:28 10° SSE visible
